Regional Weather Roundup
Issued by NWS Wakefield, VA

Home | Current Version | Previous Version | Graphics & Text | Print | Product List | Glossary On
Versions: 1 2 3 4 5 6 7 8 9 10 11 12 13 14 15 16 17 18 19 20 21 22 23 24 25 26 27 28 29 30 31 32 33 34 35 36 37 38 39 40 41 42 43 44 45 46 47 48 49 50
299
ASUS41 KAKQ 231115
RWRAKQ

REGIONAL WEATHER ROUNDUP
NATIONAL WEATHER SERVICE WAKEFIELD VA
600 AM EST THU FEB 23 2017

Note: "fair" indicates few or no clouds below 12,000 feet with no
significant weather and/or obstructions to visibility. * = Denotes
station may not report precipitation (e.g., rain,snow,etc.),
thunder or fog.

VAZ042-051-052>054-056-231200-
NORTHERN VIRGINIA

CITY           SKY/WX    TMP DP  RH WIND       PRES   REMARKS
WASH NATIONAL  MOCLDY    53  52  96 S8        29.89R
DULLES         PTCLDY    52  50  93 S3        29.88R
FORT BELVOIR   MOCLDY    52  50  93 CALM      29.89R
QUANTICO       PTCLDY    52  51  97 SW5       29.90R
FREDERICKSBRG* CLOUDY    56  56 100 CALM      29.89R
STAFFORD*      CLOUDY    56  55  96 CALM      29.94R
WARRENTON      MOCLDY    50  47  88 CALM      29.89R
CULPEPER*      MOCLDY    52  52  98 CALM      29.90R
MANASSAS*      CLOUDY    50  49  96 CALM      29.89R
LEESBURG*      FOG       45  45 100 MISG      29.89R VSB 1/2
WINCHESTER     CLOUDY    54  50  87 SW6       29.87R
FRONT ROYAL*   MOSUNNY   54  50  87 S3        29.86R
LURAY*         CLOUDY    54  52  94 CALM      29.89R
$$

VAZ048-049-060>072-079>083-231200-
CENTRAL AND SOUTH CENTRAL VIRGINIA

CITY           SKY/WX    TMP DP  RH WIND       PRES   REMARKS
RICHMOND       CLOUDY    52  52 100 S3        29.92R FOG
CHESTERFIELD*  CLOUDY    52  36  54 CALM      29.94R
PETERSBURG*    CLOUDY    51  50  95 CALM      29.93S
HANOVER        CLOUDY    53  50  89 CALM      29.93R
TAPPAHANNOCK*  CLOUDY    56  56 100 S5        29.92S
QUINTON*       CLOUDY    52  52 100 CALM      29.92R
CHARLOTTSVILLE CLOUDY    54  52  93 CALM      29.90R
GORDONSVILLE*  CLOUDY    53  53 100 SW6       29.90R FOG
ORANGE*        CLOUDY    52  52 100 CALM      29.91S
LOUISA*        FOG       55  55 100 CALM      29.90R VSB 1/2
BUMPASS*       CLOUDY    52  52 100 SW6       29.91R
FARMVILLE*     FOG       50  50 100 CALM      29.92R VSB 3/4
CREWE*         CLOUDY    50  50 100 CALM      29.92R
FORT PICKETT*  CLOUDY    52  49  89 SW5       29.93R
CHASE CITY*    CLOUDY    48  46  95 CALM      29.94R
CLARKSVILLE*   CLOUDY    48  48 100 CALM      29.93R
SOUTH HILL*    CLOUDY    51  51 100 CALM      29.99R
LAWRENCEVILLE* CLOUDY    53  52  97 CALM      29.93R
EMPORIA*       CLOUDY    52  52 100 CALM      29.95S FOG
$$

VAZ088>098-231200-
SOUTHEAST VIRGINIA

CITY           SKY/WX    TMP DP  RH WIND       PRES   REMARKS
NORFOLK        LGT RAIN  57  54  89 S3        29.94R
VIRGINIA BEACH LGT RAIN  56  52  86 SW3       29.94R
NORFOLK NAVAL  CLOUDY    58  54  86 S5        29.95S
WEST POINT*    CLOUDY    56  53  89 S3        29.94R
SALUDA*        CLOUDY    57  55  90 S3        29.92S
NEWPORT NEWS   CLOUDY    58  53  84 S5        29.94R
LANGLEY AFB    CLOUDY    57  56  95 S6        29.94R
FORT EUSTIS    CLOUDY    56  53  89 S6        29.91R
WILLIAMSBURG*  CLOUDY    55  55 100 CALM      29.94S
HR EXEC AP*    CLOUDY    54  52  94 CALM      29.92S
FRANKLIN*      CLOUDY    55  52  91 CALM      29.94S
US460-WAKEFLD  CLOUDY    55  53  93 CALM      29.94R
$$

VAZ020-022-025-037-045-231200-
WEST CENTRAL AND SOUTHWEST VIRGINIA

CITY           SKY/WX    TMP DP  RH WIND       PRES   REMARKS
STAUNTON*      CLOUDY    53  50  90 CALM      29.93R
WAYNESBORO*    CLOUDY    53  51  92 SW3       29.91R
HOT SPRINGS VA CLOUDY    50  50 100 W9        29.95R
LYNCHBURG      CLOUDY   N/A N/A N/A MISG      29.94S
DANVILLE       FOG       47  47 100 CALM      29.94S VSB 1/4
SOUTH BOSTON*  CLOUDY    47  46  95 CALM      29.94R
MARTINSVILLE   FOG       47  47  98 CALM      29.96S VSB 1/4
ROANOKE        FOG       50  50 100 W3        29.95R VSB 1/4
BLACKSBURG     FOG       44  44 100 CALM      29.97R VSB 3/4
DUBLIN*        FOG       46  46 100 CALM      29.96R VSB<1/4
MARION*        FOG       43  42  96 CALM      29.97R VSB 1/4
HILLSVILLE*    MOCLDY    50  50  99 CALM      29.94R
RICHLANDS*       N/A     47  47 100 SE3       29.93R FOG
WISE*          PTCLDY    48  48 100 CALM      29.93R
ABINGDON*      CLEAR     44  44 100 E5        29.93R FOG
$$

MDZ021>025-VAZ099-100-231200-
SOUTHERN MARYLAND AND THE DELMARVA PENINSULA

CITY           SKY/WX    TMP DP  RH WIND       PRES   REMARKS
PATUXENT RIVER CLOUDY    56  53  90 SW8       29.90R
BAY BRIDGE APT CLEAR     50  48  93 S5        29.89S FOG
LEONARDTOWN    CLOUDY    55  50  82 SW7       29.91S
DOVER          CLOUDY    45  45 100 CALM      29.88S
GEORGETOWN     CLOUDY    55  52  89 S7        29.90S
EASTON         MOCLDY    53  50  89 S3        29.93R
CAMBRIDGE      CLOUDY    54  50  87 S6        29.90R
SALISBURY      CLOUDY    54  53  97 S8        29.91S
OCEAN CITY     LGT RAIN  51  48  89 VRB5      29.93R
WALLOPS ISLAND LGT RAIN  51  50  96 S7        29.94R
ACCOMACK*      RAIN      57  53  85 SW6       29.94S
$$

NCZ012>017-030>032-231200-
NORTH CENTRAL AND EASTERN NORTH CAROLINA

CITY           SKY/WX    TMP DP  RH WIND       PRES   REMARKS
ROANOKE RAPIDS PTSUNNY   52  52 100 CALM      29.94R
RALEIGH        MOCLDY    53  51  93 CALM      29.94R
ELIZABETH CITY CLOUDY    55  52  89 SE7       29.95R
AHOSKIE*         N/A     51  50  97 CALM      29.94S
EDENTON*       CLOUDY    53  51  92 CALM      29.95S
CURRITUCK*     DRIZZLE   55  55 100 CALM      29.96R
KILL DEVIL HLS NOT AVBL
MANTEO         CLOUDY    55  53  95 CALM      29.95R
CAPE HATTERAS  CLOUDY    64  58  80 S7        29.94R
TARBORO*       NOT AVBL
GOLDSBORO      CLOUDY    52  52 100 CALM      29.91R
WASHINGTON     PTCLDY    50  49  96 CALM      29.94R
GREENVILLE     CLOUDY    52  52 100 CALM      29.95S
NEW BERN       CLOUDY    50  50 100 CALM      29.94R
WILMINGTON     MOCLDY    59  56  89 E5        29.90R
$$

VAZ048-231200-
ELSEWHERE

CITY           SKY/WX    TMP DP  RH WIND       PRES   REMARKS
HARRISBURG PA  CLOUDY    43  41  93 E5        29.87R
BALTIMORE      FOG       45  44  97 CALM      29.88R VSB 1/4
ANNAPOLIS      CLEAR     49  48  97 CALM      29.89R FOG
ANDREWS AFB    MOCLDY    53  52  95 S5        29.88R
PHILADELPHIA   FOG       49  48  97 CALM      29.89F VSB 1/2
HENDERSON NC   PTCLDY    51  49  95 SW3       29.94R
GREENSBORO     PTCLDY    49  49 100 NE3       29.93R FOG
ROCKY MOUNT    MOCLDY    52  51  97 CALM      29.93S
$$

VAZ100-231200-
MARINE

STATION/POSITION TIME  TEMP    WIND        PRES    WAVE   SWELL
                       AIR SEA DIR/SP/G            HT/PER HT/PER
                 (UTC) (F)     (DEG/KT/KT) (MB)    (FT/S) (FT/S)
CAPE MAY NJ      1048   50 43  150/  6/  9 1012.0S
LEWES DE         1048   57 43  190/  6/  9 1012.2R
OCEAN-CITY-INLET 1048   46 44  220/  8/  9 1013.9R
WACHAPREAGUE VA  1048   52 50  210/  4/  5 1013.8R
THOMAS POINT MD  1100   47 43  200/  8/  8   N/A
GOOSES REEF MD   1100   46 44  170/ 10/ 12 1012.9    1/ 2
COVE POINT MD    1048   45     190/ 11/ 12 1012.9R
SOLOMONS ISLAND  1048   52 44   CALM  /  2   N/A
BISHOPS HEAD MD  1048   46 48  160/  9/ 10 1013.1R
PINEY POINT MD   1048          180/  3/  3   N/A
POTOMAC MD       1100   48 45  150/  4/  4 1012.2    0
CAMBRIDGE MD     1048   54 42  190/  5/  9 1011.5R
LEWISETTA VA     1048   56 45  240/  8/  9 1012.6R
RAPPAHANNOCK LGT 1048          180/ 12/ 13 1014.0R
YORK RVR RNG VA  1048   55     210/  9/  9 1013.0R
YORKTOWN VA      1048   59 46  200/  5/  7 1013.3R
JAMESTOWN VA     1100   56 50  130/  4/  4   N/A     0
DOMINION TERM VA 1048   56     120/  4/  4 1013.9R
KIPTOPEKE VA     1048      47  160/  5/  5   N/A
CHES BAY BRIDGE  1048   57 46  200/  5/  6 1013.9R
CAPE HENRY VA    1048   59     210/  5/  7   N/A
WILLOUBY STN VA  1048   58     180/  7/  7 1014.7R
S CRANEY ISL VA  1048   55     140/  2/  2 1013.7R
CAPE HENRY BUOY  1042      49                N/A     2/11   2/11
OFFSHORE WE BUOY 1051      48                N/A     3/10   2/11
64NM E OF VA BCH 1050   58 54  170/  4/  4 1014.0R   3/10   3/10
DUCK PIER NC     1048   58 48  290/  3/  3 1013.6R
44100 DUCK FRF   1035      48                N/A     3/11   2/11
44056 DUCK FRF   1030      49                N/A     3/11   2/11
OREGON INLET NC  1036   59 54  130/  4/  5 1013.9R
HATTERAS NC      1048   65 60  150/  6/  9 1013.4R
DIAMOND SHLS NC  1050   69 74  160/ 12/ 16 1013.6R   4/ 9   2/ 9
CAPE LOOKOUT NC  1100   65     130/  7/  8 1013.0R
$$




USA.gov is the U.S. government's official web portal to all federal, state and local government web resources and services.